Find OneWeb SL0594

NORAD ID: 54660 Int'l Des: 2022-166 Owner: ONEWEBN Country: UK Constellation: oneweb operational
LEOCIRCULARPOLARONEWEB_TYPE

Live Position

Loading 3D Globe...

About OneWeb SL0594

Description loading...

Upcoming Passes

Passes for default location (London). Set your location on the main map for personalized predictions.

Altitude History

Loading altitude history...

Two-Line Element Set

1 54660U 22166U 26121.34747535 -.00000039 00000-0 -12573-3 0 9993
2 54660 87.9221 253.3172 0001842 97.6514 262.4829 13.21824209165379
Epoch: May 1, 2026 • Age: 14 hours

Current Status

Altitude 1184.9 km
Velocity 7.26 km/s
Sub-Earth Point -16.93°S, 50.87°E
Launch Date Dec 8, 2022
Age 3.3 years
Type internet

Technical Details

Classification Payload
Mass 148.00 kg
Dry Mass 140.00 kg
Total Mass 148.00 kg
Length 1.30 m
Diameter 1.00 m
Span 5.00 m
Shape Trapezoid+2 pan
Manufacturer ONEWUS
Bus Type ARROW
Phase Status In Orbit
Owner/State ONEWEBN/UK

Most Searched